When you browse on this site, cookies collect data to enhance your experience and personalize the content and advertising you see.
Visit our Privacy Policy to learn more. By continuing to use the site, you agree to this use of cookies and data.
  • In Czech Republic
  • List of Countries
  • For 7 days
  • Water Temperature
  • Satellite Maps
  • Weather Map
  • Weather Widgets
  • user-avatar
    Login

    Hourly Weather Grushevka

    Today, 19 February, Tuesday

    Time Temperature Precipitation Wind Pressure Humidity
    00:00 -12°C° 0 mm 5 mps 750 mmHg 85%
    01:00 -12°C° 0 mm 5 mps 751 mmHg 86%
    02:00 -13°C° 0 mm 5 mps 752 mmHg 87%
    03:00 -13°C° 0 mm 5 mps 752 mmHg 87%
    04:00 -12°C° 0 mm 4 mps 752 mmHg 88%
    05:00 -14°C° 0 mm 4 mps 753 mmHg 89%
    06:00 -14°C° 0 mm 4 mps 753 mmHg 91%
    07:00 -14°C° 0 mm 4 mps 754 mmHg 90%
    08:00 -14°C° 0 mm 4 mps 755 mmHg 90%
    09:00 -14°C° 0 mm 4 mps 755 mmHg 90%
    10:00 -12°C° 0 mm 4 mps 755 mmHg 88%
    11:00 -10°C° 0 mm 3 mps 755 mmHg 86%
    12:00 -9°C° 0 mm 3 mps 755 mmHg 84%
    13:00 -9°C° 0 mm 3 mps 755 mmHg 84%
    14:00 -8°C° 0 mm 3 mps 755 mmHg 84%
    15:00 -9°C° 0 mm 4 mps 755 mmHg 83%
    16:00 -9°C° 0 mm 4 mps 754 mmHg 85%
    17:00 -10°C° 0 mm 4 mps 754 mmHg 87%
    18:00 -10°C° 0 mm 4 mps 754 mmHg 89%
    19:00 -11°C° 0 mm 5 mps 753 mmHg 89%
    20:00 -11°C° 0 mm 5 mps 753 mmHg 88%
    21:00 -11°C° 0 mm 5 mps 752 mmHg 88%
    22:00 -11°C° 0 mm 5 mps 752 mmHg 89%
    23:00 -11°C° 0 mm 5 mps 752 mmHg 89%

    Tomorrow, 20 February, Wednesday

    Time Temperature Precipitation Wind Pressure Humidity
    00:00 -11°C° 0 mm 5 mps 752 mmHg 90%
    01:00 -11°C° 0 mm 5 mps 752 mmHg 90%
    02:00 -11°C° 0 mm 5 mps 751 mmHg 89%
    03:00 -11°C° 0 mm 5 mps 751 mmHg 89%
    04:00 -11°C° 0 mm 5 mps 751 mmHg 89%
    05:00 -11°C° 0 mm 5 mps 750 mmHg 88%
    06:00 -11°C° 0 mm 5 mps 749 mmHg 88%
    07:00 -11°C° 0 mm 5 mps 749 mmHg 87%
    08:00 -10°C° 0 mm 6 mps 749 mmHg 86%
    09:00 -10°C° 0 mm 6 mps 748 mmHg 86%
    10:00 -9°C° 0 mm 6 mps 748 mmHg 84%
    11:00 -7°C° 0 mm 7 mps 748 mmHg 83%
    12:00 -6°C° 0 mm 7 mps 747 mmHg 81%
    13:00 -6°C° 0 mm 7 mps 747 mmHg 82%
    14:00 -4°C° 0 mm 7 mps 747 mmHg 82%
    15:00 -4°C° 0 mm 7 mps 747 mmHg 82%
    16:00 -4°C° 0 mm 7 mps 746 mmHg 85%
    17:00 -4°C° 0 mm 6 mps 746 mmHg 87%
    18:00 -4°C° 0 mm 6 mps 746 mmHg 89%
    19:00 -4°C° 0.1 mm 6 mps 746 mmHg 90%
    20:00 -4°C° 0.1 mm 6 mps 745 mmHg 91%
    21:00 -4°C° 0.1 mm 6 mps 745 mmHg 92%
    22:00 -3°C° 0.1 mm 6 mps 745 mmHg 92%
    23:00 -3°C° 0.1 mm 6 mps 744 mmHg 92%

    Day after tomorrow, 21 February, Thursday

    Time Temperature Precipitation Wind Pressure Humidity
    00:00 -3°C° 0.1 mm 6 mps 744 mmHg 93%
    01:00 -3°C° 0.2 mm 6 mps 744 mmHg 93%
    02:00 -2°C° 0.2 mm 6 mps 743 mmHg 93%
    03:00 -1°C° 0.2 mm 5 mps 743 mmHg 93%
    04:00 -1°C° 0 mm 5 mps 743 mmHg 94%
    05:00 -1°C° 0 mm 5 mps 742 mmHg 94%
    06:00 -2°C° 0 mm 5 mps 742 mmHg 94%
    07:00 -2°C° 0 mm 5 mps 742 mmHg 95%
    08:00 -2°C° 0 mm 5 mps 741 mmHg 95%
    09:00 -3°C° 0 mm 6 mps 741 mmHg 95%
    10:00 -3°C° 0.1 mm 6 mps 741 mmHg 95%
    11:00 -3°C° 0.1 mm 6 mps 740 mmHg 94%
    12:00 -3°C° 0.1 mm 6 mps 740 mmHg 94%
    13:00 -3°C° 0.5 mm 6 mps 740 mmHg 93%
    14:00 -2°C° 0.5 mm 5 mps 740 mmHg 91%
    15:00 -2°C° 0.5 mm 5 mps 740 mmHg 90%
    16:00 -5°C° 0 mm 5 mps 740 mmHg 89%
    17:00 -5°C° 0 mm 4 mps 740 mmHg 89%
    18:00 -8°C° 0 mm 4 mps 740 mmHg 88%
    19:00 -8°C° 0 mm 4 mps 740 mmHg 89%
    20:00 -8°C° 0 mm 4 mps 740 mmHg 90%
    21:00 -7°C° 0 mm 4 mps 740 mmHg 91%
    22:00 -7°C° 0 mm 4 mps 740 mmHg 91%
    23:00 -7°C° 0 mm 4 mps 740 mmHg 92%

    22 February, Friday

    Time Temperature Precipitation Wind Pressure Humidity
    00:00 -7°C° 0 mm 5 mps 740 mmHg 92%
    01:00 -7°C° 0.1 mm 4 mps 740 mmHg 92%
    02:00 -7°C° 0.1 mm 4 mps 739 mmHg 93%
    03:00 -7°C° 0.1 mm 4 mps 739 mmHg 93%
    04:00 -7°C° 0.2 mm 5 mps 739 mmHg 92%
    05:00 -9°C° 0.2 mm 6 mps 740 mmHg 91%
    06:00 -9°C° 0.2 mm 7 mps 740 mmHg 90%
    07:00 -11°C° 0.1 mm 7 mps 740 mmHg 89%
    08:00 -11°C° 0.1 mm 7 mps 741 mmHg 88%
    09:00 -12°C° 0.1 mm 7 mps 741 mmHg 86%
    10:00 -11°C° 0.1 mm 6 mps 742 mmHg 86%
    11:00 -11°C° 0.1 mm 6 mps 743 mmHg 85%
    12:00 -11°C° 0.1 mm 6 mps 743 mmHg 85%
    13:00 -11°C° 0.1 mm 6 mps 744 mmHg 84%
    14:00 -12°C° 0.1 mm 6 mps 744 mmHg 84%
    15:00 -12°C° 0.1 mm 6 mps 745 mmHg 84%
    16:00 -12°C° 0.1 mm 5 mps 746 mmHg 85%
    17:00 -13°C° 0.1 mm 5 mps 746 mmHg 86%
    18:00 -14°C° 0.1 mm 4 mps 747 mmHg 87%
    19:00 -14°C° 0 mm 4 mps 747 mmHg 89%
    20:00 -15°C° 0 mm 4 mps 748 mmHg 90%
    21:00 -15°C° 0 mm 3 mps 749 mmHg 92%
    22:00 -15°C° 0 mm 3 mps 749 mmHg 93%
    23:00 -16°C° 0 mm 3 mps 749 mmHg 93%

    23 February, Saturday

    Time Temperature Precipitation Wind Pressure Humidity
    00:00 -17°C° 0 mm 3 mps 750 mmHg 94%
    01:00 -17°C° 0 mm 3 mps 750 mmHg 94%
    02:00 -18°C° 0 mm 3 mps 751 mmHg 95%
    03:00 -18°C° 0 mm 3 mps 751 mmHg 95%
    04:00 -19°C° 0 mm 3 mps 751 mmHg 95%
    05:00 -18°C° 0 mm 2 mps 752 mmHg 96%
    06:00 -18°C° 0 mm 2 mps 752 mmHg 96%
    07:00 -17°C° 0 mm 2 mps 752 mmHg 96%
    08:00 -17°C° 0 mm 2 mps 753 mmHg 95%
    09:00 -16°C° 0 mm 2 mps 753 mmHg 95%
    10:00 -15°C° 0 mm 2 mps 754 mmHg 93%
    11:00 -14°C° 0 mm 2 mps 754 mmHg 91%
    12:00 -10°C° 0 mm 1 mps 755 mmHg 89%
    13:00 -10°C° 0 mm 1 mps 755 mmHg 87%
    14:00 -9°C° 0 mm 1 mps 755 mmHg 85%
    15:00 -8°C° 0 mm 0 mps 756 mmHg 84%
    16:00 -9°C° 0 mm 0 mps 756 mmHg 86%
    17:00 -10°C° 0 mm 0 mps 756 mmHg 88%
    18:00 -11°C° 0 mm 0 mps 757 mmHg 90%
    19:00 -11°C° 0 mm 0 mps 757 mmHg 92%
    20:00 -11°C° 0 mm 1 mps 758 mmHg 93%
    21:00 -10°C° 0 mm 1 mps 758 mmHg 94%
    22:00 -11°C° 0 mm 1 mps 758 mmHg 95%
    23:00 -13°C° 0 mm 2 mps 758 mmHg 95%

    24 February, Sunday

    Time Temperature Precipitation Wind Pressure Humidity
    00:00 -13°C° 0 mm 2 mps 759 mmHg 96%
    01:00 -14°C° 0 mm 2 mps 759 mmHg 96%
    02:00 -15°C° 0 mm 2 mps 759 mmHg 96%
    03:00 -15°C° 0 mm 2 mps 759 mmHg 96%
    04:00 -16°C° 0 mm 2 mps 759 mmHg 96%
    05:00 -17°C° 0 mm 3 mps 759 mmHg 96%
    06:00 -17°C° 0 mm 3 mps 759 mmHg 96%
    07:00 -17°C° 0 mm 3 mps 759 mmHg 95%
    08:00 -16°C° 0 mm 3 mps 760 mmHg 95%
    09:00 -16°C° 0 mm 3 mps 760 mmHg 95%
    10:00 -15°C° 0 mm 3 mps 760 mmHg 94%
    11:00 -14°C° 0 mm 3 mps 760 mmHg 94%
    12:00 -13°C° 0 mm 3 mps 760 mmHg 93%
    13:00 -12°C° 0 mm 4 mps 760 mmHg 92%
    14:00 -12°C° 0 mm 4 mps 760 mmHg 91%
    15:00 -12°C° 0 mm 4 mps 760 mmHg 90%
    16:00 -14°C° 0 mm 4 mps 760 mmHg 91%
    17:00 -14°C° 0 mm 3 mps 760 mmHg 93%
    18:00 -14°C° 0 mm 3 mps 761 mmHg 94%
    19:00 -15°C° 0 mm 3 mps 761 mmHg 94%
    20:00 -15°C° 0 mm 3 mps 761 mmHg 94%
    21:00 -15°C° 0 mm 2 mps 761 mmHg 94%
    22:00 -15°C° 0 mm 2 mps 761 mmHg 94%
    23:00 -15°C° 0 mm 2 mps 761 mmHg 94%
    Show more